When you browse on this site, cookies collect data to enhance your experience and personalize the content and advertising you see.
Visit our Privacy Policy to learn more. By continuing to use the site, you agree to this use of cookies and data.
  • Em Portugal
  • Lista de países
  • Para 7 dias
  • Temperatura da água
  • Mapas de satélite
  • Mapa do tempo
  • Widgets de tempo
  • user-avatar
    Iniciar Sessão

    Previsão horária em Castlebar

    Hoje, 16 Julho, Terça-feira

    Tempo Temperatura Precipitação Vento Pressão Humidade
    00:00 +14°C° 0 mm 1 m/s 759 mmHg 93%
    01:00 +14°C° 0 mm 1 m/s 759 mmHg 94%
    02:00 +13°C° 0 mm 1 m/s 759 mmHg 95%
    03:00 +14°C° 0 mm 1 m/s 759 mmHg 94%
    04:00 +14°C° 0 mm 1 m/s 759 mmHg 93%
    05:00 +15°C° 0 mm 1 m/s 759 mmHg 94%
    06:00 +16°C° 0 mm 2 m/s 759 mmHg 87%
    07:00 +17°C° 0 mm 2 m/s 759 mmHg 80%
    08:00 +19°C° 0 mm 3 m/s 759 mmHg 73%
    09:00 +19°C° 0 mm 3 m/s 759 mmHg 70%
    10:00 +20°C° 0 mm 4 m/s 758 mmHg 68%
    11:00 +20°C° 0 mm 4 m/s 758 mmHg 65%
    12:00 +20°C° 0.1 mm 4 m/s 758 mmHg 66%
    13:00 +20°C° 0.1 mm 5 m/s 758 mmHg 68%
    14:00 +20°C° 0.1 mm 5 m/s 758 mmHg 70%
    15:00 +19°C° 0.1 mm 5 m/s 757 mmHg 71%
    16:00 +19°C° 0.1 mm 5 m/s 757 mmHg 73%
    17:00 +17°C° 0.1 mm 5 m/s 757 mmHg 74%
    18:00 +17°C° 0 mm 4 m/s 757 mmHg 78%
    19:00 +17°C° 0 mm 3 m/s 757 mmHg 82%
    20:00 +16°C° 0 mm 3 m/s 757 mmHg 85%
    21:00 +14°C° 0 mm 3 m/s 756 mmHg 87%
    22:00 +14°C° 0 mm 3 m/s 756 mmHg 89%
    23:00 +14°C° 0 mm 3 m/s 756 mmHg 90%

    Amanhã, 17 Julho, Quarta-feira

    Tempo Temperatura Precipitação Vento Pressão Humidade
    00:00 +14°C° 0.1 mm 4 m/s 755 mmHg 90%
    01:00 +14°C° 0.1 mm 4 m/s 754 mmHg 90%
    02:00 +14°C° 0.1 mm 4 m/s 754 mmHg 90%
    03:00 +14°C° 0.7 mm 4 m/s 753 mmHg 91%
    04:00 +14°C° 0.7 mm 4 m/s 753 mmHg 92%
    05:00 +14°C° 0.7 mm 5 m/s 753 mmHg 93%
    06:00 +15°C° 0.8 mm 5 m/s 752 mmHg 94%
    07:00 +15°C° 0.8 mm 5 m/s 752 mmHg 95%
    08:00 +15°C° 0.8 mm 5 m/s 752 mmHg 95%
    09:00 +15°C° 1.4 mm 5 m/s 752 mmHg 96%
    10:00 +17°C° 1.4 mm 4 m/s 752 mmHg 96%
    11:00 +17°C° 1.4 mm 4 m/s 752 mmHg 97%
    12:00 +17°C° 0.5 mm 4 m/s 752 mmHg 95%
    13:00 +17°C° 0.5 mm 4 m/s 752 mmHg 94%
    14:00 +17°C° 0.5 mm 3 m/s 752 mmHg 92%
    15:00 +17°C° 0.1 mm 4 m/s 752 mmHg 89%
    16:00 +17°C° 0.1 mm 4 m/s 752 mmHg 85%
    17:00 +15°C° 0.1 mm 4 m/s 752 mmHg 82%
    18:00 +14°C° 0 mm 4 m/s 752 mmHg 83%
    19:00 +13°C° 0 mm 3 m/s 752 mmHg 84%
    20:00 +12°C° 0 mm 3 m/s 753 mmHg 85%
    21:00 +14°C° 0 mm 2 m/s 753 mmHg 85%
    22:00 +14°C° 0 mm 2 m/s 752 mmHg 85%
    23:00 +14°C° 0 mm 2 m/s 752 mmHg 84%

    Depois de amanhã, 18 Julho, Quinta-feira

    Tempo Temperatura Precipitação Vento Pressão Humidade
    00:00 +13°C° 0.1 mm 3 m/s 752 mmHg 85%
    01:00 +13°C° 0.1 mm 3 m/s 752 mmHg 86%
    02:00 +12°C° 0.1 mm 3 m/s 752 mmHg 87%
    03:00 +12°C° 0 mm 3 m/s 752 mmHg 88%
    04:00 +12°C° 0 mm 3 m/s 752 mmHg 88%
    05:00 +12°C° 0 mm 3 m/s 752 mmHg 89%
    06:00 +13°C° 0.2 mm 3 m/s 752 mmHg 89%
    07:00 +13°C° 0.2 mm 4 m/s 752 mmHg 88%
    08:00 +14°C° 0.2 mm 4 m/s 752 mmHg 87%
    09:00 +14°C° 0.3 mm 4 m/s 752 mmHg 85%
    10:00 +15°C° 0.3 mm 5 m/s 752 mmHg 83%
    11:00 +15°C° 0.3 mm 5 m/s 752 mmHg 81%
    12:00 +16°C° 0.2 mm 5 m/s 752 mmHg 77%
    13:00 +16°C° 0.2 mm 6 m/s 752 mmHg 74%
    14:00 +17°C° 0.2 mm 6 m/s 752 mmHg 70%
    15:00 +17°C° 0.1 mm 6 m/s 752 mmHg 73%
    16:00 +16°C° 0.1 mm 5 m/s 752 mmHg 76%
    17:00 +16°C° 0.1 mm 5 m/s 752 mmHg 79%
    18:00 +15°C° 0.1 mm 4 m/s 752 mmHg 83%
    19:00 +14°C° 0.1 mm 3 m/s 753 mmHg 87%
    20:00 +14°C° 0.1 mm 2 m/s 753 mmHg 91%
    21:00 +13°C° 0 mm 2 m/s 753 mmHg 92%
    22:00 +13°C° 0 mm 1 m/s 753 mmHg 93%
    23:00 +12°C° 0 mm 1 m/s 753 mmHg 94%

    19 Julho, Sexta-feira

    Tempo Temperatura Precipitação Vento Pressão Humidade
    00:00 +12°C° 0 mm 1 m/s 752 mmHg 94%
    01:00 +12°C° 0 mm 1 m/s 752 mmHg 94%
    02:00 +12°C° 0 mm 1 m/s 752 mmHg 94%
    03:00 +12°C° 0.1 mm 1 m/s 752 mmHg 93%
    04:00 +13°C° 0.1 mm 1 m/s 752 mmHg 93%
    05:00 +13°C° 0.1 mm 1 m/s 751 mmHg 92%
    06:00 +14°C° 0.1 mm 1 m/s 751 mmHg 91%
    07:00 +14°C° 0.1 mm 2 m/s 751 mmHg 90%
    08:00 +15°C° 0.1 mm 2 m/s 751 mmHg 89%
    09:00 +15°C° 0.2 mm 2 m/s 751 mmHg 86%
    10:00 +16°C° 0.2 mm 1 m/s 751 mmHg 83%
    11:00 +18°C° 0.2 mm 1 m/s 750 mmHg 79%
    12:00 +18°C° 0.3 mm 1 m/s 750 mmHg 79%
    13:00 +18°C° 0.3 mm 1 m/s 750 mmHg 79%
    14:00 +18°C° 0.3 mm 1 m/s 750 mmHg 79%
    15:00 +16°C° 0.4 mm 1 m/s 749 mmHg 83%
    16:00 +16°C° 0.4 mm 1 m/s 749 mmHg 88%
    17:00 +15°C° 0.4 mm 1 m/s 749 mmHg 92%
    18:00 +15°C° 0.2 mm 1 m/s 749 mmHg 93%
    19:00 +14°C° 0.2 mm 1 m/s 749 mmHg 94%
    20:00 +14°C° 0.2 mm 1 m/s 749 mmHg 95%
    21:00 +14°C° 0 mm 1 m/s 749 mmHg 95%
    22:00 +13°C° 0 mm 1 m/s 749 mmHg 94%
    23:00 +13°C° 0 mm 2 m/s 749 mmHg 94%

    20 Julho, Sábado

    Tempo Temperatura Precipitação Vento Pressão Humidade
    00:00 +12°C° 0 mm 2 m/s 749 mmHg 94%
    01:00 +12°C° 0 mm 2 m/s 750 mmHg 93%
    02:00 +12°C° 0 mm 2 m/s 750 mmHg 93%
    03:00 +12°C° 0 mm 2 m/s 750 mmHg 92%
    04:00 +12°C° 0 mm 1 m/s 750 mmHg 92%
    05:00 +13°C° 0 mm 1 m/s 750 mmHg 91%
    06:00 +14°C° 0 mm 2 m/s 751 mmHg 86%
    07:00 +15°C° 0 mm 2 m/s 751 mmHg 80%
    08:00 +17°C° 0 mm 3 m/s 751 mmHg 75%
    09:00 +17°C° 0 mm 3 m/s 752 mmHg 72%
    10:00 +18°C° 0 mm 3 m/s 752 mmHg 68%
    11:00 +19°C° 0 mm 4 m/s 752 mmHg 65%
    12:00 +19°C° 0.1 mm 4 m/s 753 mmHg 65%
    13:00 +19°C° 0.1 mm 4 m/s 753 mmHg 64%
    14:00 +19°C° 0.1 mm 4 m/s 753 mmHg 64%
    15:00 +18°C° 0 mm 4 m/s 753 mmHg 66%
    16:00 +18°C° 0 mm 4 m/s 754 mmHg 68%
    17:00 +17°C° 0 mm 3 m/s 754 mmHg 71%
    18:00 +16°C° 0 mm 3 m/s 754 mmHg 76%
    19:00 +15°C° 0 mm 2 m/s 755 mmHg 81%
    20:00 +14°C° 0 mm 1 m/s 755 mmHg 86%
    21:00 +14°C° 0 mm 1 m/s 755 mmHg 86%
    22:00 +14°C° 0 mm 2 m/s 755 mmHg 87%
    23:00 +14°C° 0 mm 2 m/s 755 mmHg 87%

    21 Julho, Domingo

    Tempo Temperatura Precipitação Vento Pressão Humidade
    00:00 +13°C° 0.3 mm 3 m/s 755 mmHg 89%
    01:00 +13°C° 0.3 mm 3 m/s 755 mmHg 92%
    02:00 +14°C° 0.3 mm 3 m/s 754 mmHg 94%
    03:00 +14°C° 0 mm 4 m/s 755 mmHg 94%
    04:00 +14°C° 0 mm 4 m/s 755 mmHg 94%
    05:00 +15°C° 0 mm 4 m/s 755 mmHg 94%
    06:00 +17°C° 0 mm 4 m/s 755 mmHg 92%
    07:00 +17°C° 0 mm 4 m/s 755 mmHg 89%
    08:00 +17°C° 0 mm 5 m/s 756 mmHg 86%
    09:00 +19°C° 0.1 mm 5 m/s 756 mmHg 84%
    10:00 +19°C° 0.1 mm 5 m/s 756 mmHg 81%
    11:00 +20°C° 0.1 mm 6 m/s 757 mmHg 78%
    12:00 +20°C° 0.1 mm 6 m/s 757 mmHg 78%
    13:00 +20°C° 0.1 mm 6 m/s 757 mmHg 78%
    14:00 +21°C° 0.1 mm 7 m/s 757 mmHg 77%
    15:00 +21°C° 0 mm 6 m/s 757 mmHg 79%
    16:00 +21°C° 0 mm 6 m/s 757 mmHg 80%
    17:00 +21°C° 0 mm 5 m/s 757 mmHg 81%
    18:00 +20°C° 0 mm 4 m/s 757 mmHg 84%
    19:00 +19°C° 0 mm 4 m/s 757 mmHg 87%
    20:00 +18°C° 0 mm 3 m/s 757 mmHg 91%
    21:00 +18°C° 0 mm 4 m/s 756 mmHg 89%
    22:00 +17°C° 0 mm 5 m/s 756 mmHg 88%
    23:00 +17°C° 0 mm 7 m/s 756 mmHg 87%
    Mostrar mais